Weather in Timiryazevo

Kazakhstan     53°44′53″N   66°29′31″E
temp.,
°C
wind,
m/s
gust,
m/s
humid.,
%
clouds,
%
prec.,
mm/h
press.,
hPa
HPBL,
m
17 september, fri
fri1700:00+9wnw34555 0.0 100372
03:00+7wsw36595 0.0 1003114
06:00+5w38685 0.0 1003184
09:00+7w6106252 0.0 1002746
12:00+9w81051100 0.0 10021622
15:00+10wnw91051100 0.1 10031850
18:00+9wnw71048100 0.1 10041846
21:00+8wnw61063100 0.1 10061077
18 september, sat
sat1800:00+7wnw6107275 0.1 1007909
03:00+4w4108871 0.0 1009345
06:00+6w4873100 0.0 1010735
09:00+6w4678100 0.1 1010632
12:00+9w6762100 0.3 10101278
15:00+10wsw6858100 0.4 10091506
18:00+9w4661100 1.0 10081157
21:00+7wnw3679100 0.6 1009941
19 september, sun
sun1900:00+5w378478 0.9 1009228
03:00+3w410895 0.0 1009238
06:00+2w510957 0.0 1010297
09:00+2w6108211 0.0 1012534
12:00+6w8105899 0.0 10121443
15:00+6w81154100 0.1 10131800
18:00+7wnw8125182 0.1 10141541
21:00+5wnw7125995 0.0 1015790
20 september, mon
mon2000:00+6wnw61058100 0.0 10161283
03:00+5wnw6106497 0.0 1017879
06:00+4wnw6963100 0.0 1019805
09:00+4nw796391 0.0 1021878
12:00+6nw7857100 0.0 10231334
15:00+6nnw675494 0.0 10251344
18:00+7nnw5647100 0.0 10261615
21:00+5nnw3653100 0.0 1028494
21 september, tue
tue2100:00+5nnw2454100 0.0 1029209
03:00+5nw2361100 0.0 1030132
06:00+4n2364100 0.0 1031146
09:00+5nne226283 0.0 1032265
12:00+8nnw224585 0.0 10321444
15:00+10wnw223761 0.0 10311642
18:00+10nw22375 0.0 10301549
21:00+6n22490 0.0 103010